Glendive, MT

3:33 AM MDT on March 27, 2017 (GMT -0600)
Dawson Community

Weather History for KGDV - July, 2012

Change the Weather History Date:

Tuesday, July 31, 2012

  Actual Average Record
Temperature  
Mean Temperature 81 °F -  
Max Temperature 96 °F 84 °F 102 °F (2007)
Min Temperature 66 °F 57 °F 50 °F (1999)
Cooling Degree Days 16    
Growing Degree Days 31 (Base 50)    
Moisture  
Dew Point 53 °F    
Average Humidity 40    
Maximum Humidity 73    
Minimum Humidity 16    
Precipitation  
Precipitation 0.07 in - - ()
Sea Level Pressure  
Sea Level Pressure 29.94 in    
Wind  
Wind Speed 11 mph (NW)    
Max Wind Speed 26 mph    
Max Gust Speed 32 mph    
Visibility 10 miles    
Events Thunderstorm    
Averages and records for this station are not official NWS values.
T = Trace of Precipitation, MM = Missing Value Source: NWS Daily Summary

Daily Weather History Graph

Daily Weather History Graph

Search for Another Location

Airport or City:

Trip Planner

Search our weather history database for the weather conditions in past years. The results will help you decide how hot, cold, wet, or windy it might be!

Date:

Astronomy

Jul. 31, 2012 Rise Set
Actual Time 5:37 AM MDT 8:32 PM MDT
Civil Twilight 5:01 AM MDT 9:08 PM MDT
Nautical Twilight 4:16 AM MDT 9:53 PM MDT
Astronomical Twilight 3:20 AM MDT 10:48 PM MDT
Moon 7:22 PM MDT (7/31) 3:59 AM MDT (7/31)
Length of Visible Light 16h 06m
Length of Day
14h 55m
Waxing Gibbous, 97% of the Moon is Illuminated
Jul 31
Waxing Gibbous
Aug 1
Full
Aug 9
Last Quarter
Aug 17
New
Aug 24
First Quarter

Hourly Weather History & Observations

Time (MDT) Temp. Heat Index Dew Point Humidity Pressure Visibility Wind Dir Wind Speed Gust Speed Precip Events Conditions
12:15 AM 80.6 °F - 48.2 °F 32% 29.92 in 10.0 mi SE 5.8 mph - N/A   Clear
12:35 AM 80.6 °F - 48.2 °F 32% 29.93 in 10.0 mi Calm Calm - N/A   Clear
12:55 AM 80.6 °F - 48.2 °F 32% 29.94 in 10.0 mi SSW 3.5 mph - N/A   Clear
1:15 AM 80.6 °F - 48.2 °F 32% 29.95 in 10.0 mi SSE 10.4 mph - N/A   Clear
1:35 AM 80.6 °F - 48.2 °F 32% 29.99 in 10.0 mi NW 17.3 mph 25.3 mph N/A   Mostly Cloudy
1:55 AM 80.6 °F - 48.2 °F 32% 30.01 in 10.0 mi West 12.7 mph 20.7 mph N/A   Overcast
2:15 AM 77.0 °F - 51.8 °F 41% 30.01 in 10.0 mi WNW 23.0 mph 31.1 mph N/A   Mostly Cloudy
2:55 AM 73.4 °F - 55.4 °F 53% 30.08 in 10.0 mi West 18.4 mph 26.5 mph N/A Thunderstorm Overcast
3:15 AM 69.8 °F - 55.4 °F 60% 30.06 in 10.0 mi North 13.8 mph 25.3 mph 0.03 in Thunderstorm Thunderstorm
3:35 AM 66.2 °F - 57.2 °F 73% 30.02 in 10.0 mi NNW 16.1 mph 29.9 mph 0.05 in Thunderstorm Thunderstorm
3:55 AM 66.2 °F - 57.2 °F 73% 30.04 in 10.0 mi East 10.4 mph - 0.06 in Thunderstorm Thunderstorm
4:15 AM 66.2 °F - 55.4 °F 68% 29.98 in 10.0 mi North 26.5 mph 32.2 mph 0.01 in Thunderstorm Thunderstorm
4:35 AM 66.2 °F - 55.4 °F 68% 29.95 in 10.0 mi NE 12.7 mph 21.9 mph 0.01 in   Partly Cloudy
5:15 AM 66.2 °F - 55.4 °F 68% 29.92 in 10.0 mi ENE 16.1 mph - N/A   Clear
5:35 AM 68.0 °F - 53.6 °F 60% 29.92 in 10.0 mi ENE 15.0 mph - N/A   Clear
5:55 AM 66.2 °F - 53.6 °F 64% 29.90 in 10.0 mi ENE 12.7 mph - N/A   Clear
6:15 AM 66.2 °F - 53.6 °F 64% 29.90 in 10.0 mi ENE 12.7 mph - N/A   Clear
6:35 AM 68.0 °F - 53.6 °F 60% 29.91 in 10.0 mi ENE 9.2 mph - N/A   Clear
6:55 AM 68.0 °F - 55.4 °F 64% 29.92 in 10.0 mi East 5.8 mph - N/A   Clear
7:15 AM 69.8 °F - 55.4 °F 60% 29.92 in 10.0 mi East 3.5 mph - N/A   Clear
7:35 AM 71.6 °F - 55.4 °F 57% 29.93 in 10.0 mi Calm Calm - N/A   Clear
7:55 AM 73.4 °F - 55.4 °F 53% 29.93 in 10.0 mi Calm Calm - N/A   Clear
8:15 AM 75.2 °F - 55.4 °F 50% 29.94 in 10.0 mi SSW 6.9 mph - N/A   Clear
8:35 AM 77.0 °F - 57.2 °F 50% 29.93 in 10.0 mi SW 9.2 mph - N/A   Clear
8:55 AM 78.8 °F - 57.2 °F 47% 29.94 in 10.0 mi SSW 10.4 mph - N/A   Clear
9:15 AM 78.8 °F - 57.2 °F 47% 29.94 in 10.0 mi SSW 10.4 mph - N/A   Clear
9:35 AM 80.6 °F 80.8 °F 57.2 °F 45% 29.94 in 10.0 mi SSW 15.0 mph - N/A   Clear
9:55 AM 80.6 °F 80.8 °F 57.2 °F 45% 29.94 in 10.0 mi SSW 13.8 mph - N/A   Clear
10:15 AM 82.4 °F 82.0 °F 57.2 °F 42% 29.95 in 10.0 mi SSW 13.8 mph - N/A   Clear
10:35 AM 82.4 °F 82.5 °F 59.0 °F 45% 29.95 in 10.0 mi SSW 15.0 mph - N/A   Clear
10:55 AM 84.2 °F 83.8 °F 59.0 °F 42% 29.94 in 10.0 mi SW 16.1 mph - N/A   Clear
11:15 AM 86.0 °F 85.4 °F 59.0 °F 40% 29.95 in 10.0 mi WSW 10.4 mph - N/A   Clear
11:35 AM 87.8 °F 87.1 °F 59.0 °F 38% 29.94 in 10.0 mi SSW 13.8 mph - N/A   Clear
11:55 AM 87.8 °F 87.1 °F 59.0 °F 38% 29.94 in 10.0 mi SW 12.7 mph - N/A   Clear
12:15 PM 89.6 °F 88.1 °F 57.2 °F 33% 29.93 in 10.0 mi WSW 11.5 mph 17.3 mph N/A   Clear
12:35 PM 91.4 °F 89.9 °F 57.2 °F 31% 29.93 in 10.0 mi WSW 8.1 mph 17.3 mph N/A   Clear
12:55 PM 91.4 °F 89.9 °F 57.2 °F 31% 29.92 in 10.0 mi West 12.7 mph 18.4 mph N/A   Clear
1:15 PM 91.4 °F 89.4 °F 55.4 °F 29% 29.92 in 10.0 mi West 10.4 mph 17.3 mph N/A   Clear
1:35 PM 93.2 °F 91.3 °F 55.4 °F 28% 29.92 in 10.0 mi NW 12.7 mph 24.2 mph N/A   Clear
1:55 PM 93.2 °F 91.3 °F 55.4 °F 28% 29.91 in 10.0 mi NW 13.8 mph 25.3 mph N/A   Clear
2:35 PM 93.2 °F 91.3 °F 55.4 °F 28% 29.91 in 10.0 mi WNW 15.0 mph 21.9 mph N/A   Clear
2:55 PM 93.2 °F 91.3 °F 55.4 °F 28% 29.90 in 10.0 mi West 11.5 mph 17.3 mph N/A   Clear
3:15 PM 95.0 °F 92.7 °F 53.6 °F 25% 29.90 in 10.0 mi NW 13.8 mph - N/A   Clear
3:35 PM 96.8 °F 94.4 °F 53.6 °F 23% 29.90 in 10.0 mi WNW 8.1 mph 16.1 mph N/A   Clear
3:55 PM 96.8 °F - 51.8 °F 22% 29.90 in 10.0 mi NW 9.2 mph - N/A   Clear
4:15 PM 96.8 °F - 48.2 °F 19% 29.89 in 10.0 mi NNW 13.8 mph - N/A   Clear
4:35 PM 96.8 °F - 46.4 °F 18% 29.89 in 10.0 mi NNW 13.8 mph 23.0 mph N/A   Clear
5:15 PM 96.8 °F - 44.6 °F 17% 29.90 in 10.0 mi NNW 12.7 mph - N/A   Clear
5:55 PM 95.0 °F - 42.8 °F 16% 29.90 in 10.0 mi NW 16.1 mph 20.7 mph N/A   Clear
6:35 PM 93.2 °F - 44.6 °F 19% 29.90 in 10.0 mi NNW 15.0 mph - N/A   Clear
6:55 PM 93.2 °F - 44.6 °F 19% 29.90 in 10.0 mi NNW 11.5 mph - N/A   Clear
7:15 PM 91.4 °F - 42.8 °F 18% 29.90 in 10.0 mi NNW 10.4 mph - N/A   Clear
7:35 PM 91.4 °F - 46.4 °F 21% 29.90 in 10.0 mi NNW 4.6 mph - N/A   Clear
7:55 PM 87.8 °F - 48.2 °F 25% 29.90 in 10.0 mi NNW 9.2 mph - N/A   Clear
8:15 PM 84.2 °F - 46.4 °F 27% 29.90 in 10.0 mi NNW 9.2 mph - N/A   Clear
8:35 PM 80.6 °F - 46.4 °F 30% 29.90 in 10.0 mi North 9.2 mph - N/A   Clear
8:55 PM 82.4 °F - 48.2 °F 30% 29.91 in 10.0 mi NNE 9.2 mph - N/A   Clear
9:15 PM 80.6 °F - 50.0 °F 34% 29.92 in 10.0 mi NNE 8.1 mph - N/A   Clear
9:55 PM 77.0 °F - 53.6 °F 44% 29.93 in 10.0 mi NNE 8.1 mph - N/A   Clear
10:15 PM 75.2 °F - 53.6 °F 47% 29.93 in 10.0 mi North 11.5 mph - N/A   Clear
10:35 PM 75.2 °F - 53.6 °F 47% 29.94 in 10.0 mi North 11.5 mph - N/A   Clear
10:55 PM 77.0 °F - 53.6 °F 44% 29.95 in 10.0 mi NNE 11.5 mph - N/A   Clear
11:15 PM 75.2 °F - 53.6 °F 47% 29.95 in 10.0 mi NNE 10.4 mph - N/A   Clear
11:35 PM 75.2 °F - 53.6 °F 47% 29.95 in 10.0 mi NNE 12.7 mph - N/A   Clear
11:55 PM 75.2 °F - 53.6 °F 47% 29.96 in 10.0 mi NE 10.4 mph - N/A   Clear